User: anonymous   Login
Location: Alafon
(8.4500°N, 4.2333°E)
Time: 05:08:12
(UTC+00:00)
Language:

Courier 1B - Orbit

View from above orbital plane
View from above orbital plane
View from above satellite
View from above satellite

Ground track
Ground track

The orbit data is extracted from the following two-line orbital elements,

1 00058U 60013A   21206.72510990  .00000078  00000-0 -13885-4 0  9992
2 00058  28.3256 208.7227 0165037 167.9634 192.4918 13.46327795993009
Epoch (UTC): 25 July 2021 17:24:09
Eccentricity: 0.0165037
inclination: 28.3256°
perigee height: 962 km
apogee height: 1209 km
right ascension of ascending node: 208.7227°
argument of perigee: 167.9634°
revolutions per day: 13.46327795
mean anomaly at epoch: 192.4918°
orbit number at epoch: 99300

The dashed part of the orbit path shows where the satellite is in the earth's shadow,  

DLR